Prox-1
1 44339U 19036A   25124.60396529  .00013007  00000-0  16775-2 0  9995
2 44339  23.9972 297.9801 0007950  24.3902 335.6970 14.79198091312686
SONATE
1 44400U 19038Q   25124.80804044  .00183813  00000-0  10058-2 0  9995
2 44400  97.6964 147.3431 0004522  55.9838 304.1857 15.79315392323909
Taurus 1
1 44530U 19059C   25124.81605025  .00009388  00000-0  17439-2 0  9995
2 44530  98.6026 262.5326 0010822 145.7442 214.4459 14.65370814298709
Duchifat 3
1 44854U 19089C   25124.63033149  .00053020  00000-0  11434-2 0  9990
2 44854  36.9436 223.2547 0001251 330.2744  29.7941 15.43551825297385
TO-108
1 44881U 19093C   25124.86134329  .00001563  00000-0  18688-3 0  9996
2 44881  97.7930 201.2578 0013529 355.1201   4.9880 14.85524913290770
FloripaSat 1
1 44885U 19093G   25124.81802292  .00006515  00000-0  55513-3 0  9996
2 44885  97.8147 212.3592 0009918 329.6977  30.3670 14.98070986291396
RS-44
1 44909U 19096E   25124.59145365  .00000027  00000-0  61160-4 0  9990
2 44909  82.5208 251.1864 0217683  20.0219 340.9259 12.79740319250081
UPMSat 2
1 46276U 20061E   25124.14355256  .00068031  00000-0  71794-3 0  9998
2 46276  97.2462 197.4276 0001355 149.3501 210.7838 15.64012080259765
SALSAT
1 46495U 20068K   25124.86241116  .00010205  00000-0  44657-3 0  9994
2 46495  97.8588 101.2606 0009495 289.9396  70.0815 15.22222922253093
CubeSX-Sirius-HSE
1 47951U 21022V   25124.87056651  .00304850  00000-0  15776-2 0  9993
2 47951  97.4170  36.2066 0009223  97.4133 262.8183 15.80198884228185
CubeSX-HSE
1 47952U 21022W   25124.88644445  .00302623  00000-0  15325-2 0  9995
2 47952  97.4175  36.4767 0008647  95.9782 264.2471 15.80688342228205
GRBAlpha
1 47959U 21022AD  25124.86763320  .00275656  00000-0  14639-2 0  9996
2 47959  97.4173  36.5563 0008793  96.3825 263.8444 15.79706270227023
TUBIN
1 48900U 21059X   25124.84334470  .00056215  00000-0  76630-3 0  9999
2 48900  97.6739 291.2589 0002510  12.5420 347.5897 15.57345250214470
LEDSAT
1 49069U 21073D   25124.73309411  .00072489  00000-0  10302-2 0  9991
2 49069  97.3900 204.9001 0011716 202.7318 157.3420 15.56075844205850
CUTE
1 49263U 21088D   25124.18285722  .00018650  00000-0  38899-3 0  9992
2 49263  97.4517 199.4183 0008142  25.1585 335.0059 15.45571459198802
TeikyoSat 4
1 49396U 21102B   25124.84181116  .00003022  00000-0  20293-3 0  9997
2 49396  97.4140 164.5578 0010863 253.4292 106.5743 15.07485122191168
Z-Sat
1 49399U 21102E   25124.86872867  .00006105  00000-0  33776-3 0  9997
2 49399  97.3834 167.4630 0017146 223.6477 136.3400 15.14089865191574
KOSEN 1
1 49402U 21102H   25124.85931240  .00009222  00000-0  43252-3 0  9995
2 49402  97.3744 170.6042 0015727 197.8070 162.2616 15.19776719191861
HO-113
1 50466U 21131B   25124.85709315  .00000953  00000-0  31160-3 0  9992
2 50466  98.5086 214.3892 0003247 230.5769 129.5133 14.40768394176303
IRIS-A
1 51044U 22002BN  25124.18174866  .00284466  00000-0  11896-2 0  9992
2 51044  97.3233 202.8316 0005394 240.9525 119.1206 15.84880009184100
Foresail-1
1 52766U 22057AL  25124.56153400  .00177750  00000-0  94274-3 0  9996
2 52766  97.6038 272.4979 0001458 296.1962  63.9155 15.80033998164189
SNUGLITE 2
1 52899U 22065F   25124.38251857  .00002090  00000-0  41571-3 0  9993
2 52899  98.1633 266.7211 0006876 218.6295 141.4416 14.63118727151198
IO-117
1 53106U 22080B   25051.21822557 -.00000003  00000-0  00000+0 0  9995
2 53106  70.1434 106.3440 0008542  48.0089 312.1297  6.42557744 61200
UmKA 1 (RS40S)
1 57172U 23091G   25124.87827263  .00007761  00000-0  41862-3 0  9999
2 57172  97.5610 180.4517 0016328  98.5493 261.7590 15.14930047102070
CubeBel-2 (EU11S)
1 57175U 23091K   25124.86575575  .00011996  00000-0  58151-3 0  9991
2 57175  97.5608 181.3775 0014138 107.1680 253.1103 15.18586806102134
VERONIKA
1 58261U 23174F   25124.79689317  .00127128  00000-0  14604-2 0  9991
2 58261  97.4138 209.0745 0007337 184.7405 175.3785 15.61590855 83082
ENSO
1 58470U 23185J   25124.83389729  .00061158  00000-0  10088-2 0  9996
2 58470  97.3754 198.9071 0008528 202.1099 157.9787 15.52048362 79480
EIRSAT-1
1 58472U 23185L   25124.87840345  .00108318  00000-0  12960-2 0  9999
2 58472  97.3721 200.3219 0007749 202.1753 157.9170 15.60587503 79580
SONATE-2
1 59112U 24043Q   25124.31862848  .00023111  00000-0  69126-3 0  9990
2 59112  97.5082 254.8150 0010756 239.2596 120.7588 15.34509990 64771
MO-122
1 60209U 24125G   25124.86183600  .00022173  00000-0  65463-3 0  9999
2 60209  97.2843 336.9048 0017628 264.2337  95.6896 15.34827109 46470
GRBBeta
1 60237U 24128C   25124.53124706  .00004860  00000-0  37228-3 0  9990
2 60237  61.9913 205.2146 0048855  49.3448 311.1874 15.02312944 44780
Curium One
1 60242U 24128H   25124.55776924  .00008303  00000-0  58809-3 0  9997
2 60242  61.9812 203.9174 0048694  44.8521 315.6490 15.04560516 44812
ROBUSTA-3A
1 60243U 24128J   25124.54977653  .00008347  00000-0  59876-3 0  9992
2 60243  61.9882 204.6569 0047216  42.6469 317.8272 15.04136231 44806
CatSat
1 60246U 24125J   25124.52375241  .00011595  00000-0  39601-3 0  9998
2 60246  97.2632 336.1822 0042253 220.7525 139.0553 15.29589274 44470
HYPERVIEW-1G (RS66S)
1 61772U 24199AP  25124.88209221  .00025070  00000-0  76033-3 0  9990
2 61772  97.3589 353.8422 0012495 326.7649  33.2808 15.34031538 71488
AO-123
1 61781U 24199AY  25124.89229577  .00008666  00000-0  32022-3 0  9999
2 61781  97.3600 353.0920 0014903 330.1725  29.8664 15.27866150 71431
ZIMSAT 2
1 61783U 24199BA  25124.91194568  .00043349  00000-0  11483-2 0  9999
2 61783  97.3573 354.2433 0012410 324.3518  35.6897 15.38150470 74664
HADES-R (SO-124)
1 62690U 25009CK  25124.19631785  .00042959  00000-0  16365-2 0  9995
2 62690  97.4094 205.2138 0004111 194.4341 165.6781 15.26579865 16591
HYDRA-T
1 62692U 25009CM  25124.18710425  .00043350  00000-0  16414-2 0  9996
2 62692  97.4094 205.2247 0004005 191.2835 168.8314 15.26779506 16590
JINJUSat 1B
1 63210U 25052A   25124.19619964  .00015611  00000-0  73103-3 0  9996
2 63210  97.4453  18.7950 0006542  90.4998 269.6987 15.19790409  7720
NUSHSAT 1
1 63211U 25052B   25124.19541824  .00017089  00000-0  79673-3 0  9995
2 63211  97.4445  18.7899 0006551  94.3044 265.8940 15.19923183  7723
TEVEL2-4
1 63213U 25052D   25124.20237944  .00016373  00000-0  76933-3 0  9995
2 63213  97.4360  18.7293 0005605 105.4497 254.7357 15.19666062  7723
TEVEL2-5
1 63214U 25052E   25124.26844434  .00016152  00000-0  75925-3 0  9995
2 63214  97.4360  18.7941 0005568 105.3277 254.8573 15.19655573  7734
TEVEL2-6
1 63215U 25052F   25124.20378152  .00016323  00000-0  76817-3 0  9990
2 63215  97.4354  18.7281 0005617 105.9848 254.2006 15.19613875  7723
TEVEL2-1
1 63217U 25052H   25124.20987255  .00015640  00000-0  74045-3 0  9994
2 63217  97.4337  18.7046 0005663 115.2412 244.9410 15.19414842  7725
TEVEL2-2
1 63218U 25052J   25124.60526305  .00014425  00000-0  68318-3 0  9990
2 63218  97.4337  19.0936 0005683 114.9199 245.2627 15.19421519  7787
TEVEL2-3
1 63219U 25052K   25124.60528774  .00014441  00000-0  68400-3 0  9993
2 63219  97.4337  19.0935 0005672 115.0007 245.1817 15.19418609  7781
TEVEL2-8
1 63237U 25052AD  25124.18129919  .00015162  00000-0  74208-3 0  9998
2 63237  97.4402  18.6304 0009913 132.5690 227.6382 15.18237855  7719
TEVEL2-9
1 63238U 25052AE  25124.18237278  .00015900  00000-0  77903-3 0  9992
2 63238  97.4400  18.6304 0009893 132.7009 227.5060 15.18190627  7718
TEVEL2-7
1 63239U 25052AF  25124.18348944  .00016041  00000-0  78666-3 0  9990
2 63239  97.4401  18.6282 0009916 132.9474 227.2593 15.18154599  7715
HYDRA-W
1 63490U 25052BL  25124.19468456  .00032944  00000-0  14681-2 0  9997
2 63490  97.4350  18.7351 0014286 132.6453 227.5990 15.21264283  7726
HADES-ICM
1 63492U 25052BN  25124.26648753  .00031197  00000-0  14040-2 0  9995
2 63492  97.4356  18.7948 0014444 135.9727 224.2661 15.20936612  7733
